[[{"header":{"parameterUnit":"m.s-1","parameterCategory":1,"la1":30.2991,"la2":30.254,"lo1":-89.0895,"lo2":-89.0444,"dy":0.0017,"dx":0.0017,"nx":28,"ny":28,"refTime":"2024-08-12T21:00:00:Z","depth":0,"parameterNumber":2,"parameterNumberName":"U-component_of_WINDS"},"data":[0,0,0,0,0,0,0,0,0,0,0,0,0,0,0,0,0,0,0,0,0,0,0,0,0,0,0,0,0,0,0,0,0,0,0,0,0,0,0,0,0,0,0,0,0,0,0,0,0,0,0,0,0,0,0,0,0,0,2.791,2.7911,0,2.7988,2.7989,2.799,2.7958,2.7956,2.7954,2.7952,2.8031,2.8035,2.8039,0,0,0,0,0,0,0,0,0,0,0,0,0,2.7732,2.7736,2.791,2.7911,2.7912,2.7988,2.7989,2.799,2.7958,2.7956,2.7954,2.7952,2.803,2.8035,2.8039,0,0,0,0,0,0,0,0,0,0,0,0,0,2.781,2.7737,2.791,2.7905,2.7906,2.7988,2.7989,2.799,2.7959,2.7956,2.7953,2.7951,2.8029,2.8034,2.804,2.8131,0,0,2.8057,2.806,0,0,0,0,0,0,0,0,2.7806,2.7816,2.7905,2.7906,2.7906,2.796,2.7955,2.8037,2.7959,2.7939,2.7952,2.7949,2.801,2.8017,2.8038,2.8134,2.8138,2.8058,2.8061,2.8064,2.8065,0,0,0,0,0,0,0,2.78,2.7813,2.7941,2.7906,2.7907,2.7899,2.7907,2.7971,2.7989,2.794,2.7938,2.7948,2.801,2.8032,2.8039,2.8139,2.8058,2.8063,2.8066,2.8069,2.8315,2.8318,0,0,0,0,0,0,2.7795,2.7809,2.7938,2.7943,2.7848,2.7905,2.7913,2.7946,2.7988,2.7992,2.795,2.7946,2.8024,2.8033,2.8042,2.8151,2.8064,2.8069,2.8072,2.8312,2.8315,2.8319,0,0,0,0,0,0,2.7791,2.7807,2.7935,2.7875,2.7891,2.7911,2.7947,2.7949,2.7971,2.7996,2.7998,2.797,2.8022,2.8034,2.8109,2.8153,2.8072,2.8077,2.8308,2.8313,2.8317,2.837,0,0,0,0,0,0,2.7786,2.7806,2.784,2.7876,2.7894,2.8001,2.795,2.7952,2.7981,2.7977,2.8015,2.8018,2.8021,2.8101,2.8115,2.816,2.8081,2.8304,2.831,2.8316,2.8365,2.8376,2.8386,0,0,0,0,0,2.778,2.7852,2.7842,2.7858,2.7938,2.8004,2.8014,2.8016,2.7985,2.802,2.8036,2.8017,2.8147,2.8109,2.8124,2.8172,2.8301,2.8308,2.8315,2.836,2.8374,2.8386,0,0,0,0,0,0,2.782,2.7857,2.7846,2.7932,2.7965,2.7998,2.8042,2.803,2.8073,2.8066,2.8066,2.8075,2.8153,2.817,2.8127,2.8262,2.8219,2.823,2.8248,2.8262,2.8272,2.8266,2.8086,0,0,0,0,0,2.7839,2.7889,2.7918,2.7991,2.8009,2.8023,2.8051,2.805,2.8084,2.8098,2.8119,2.8152,2.82,2.8232,2.8278,2.8368,2.8375,2.8408,2.8419,2.8427,2.8436,2.8485,2.85,2.8342,2.8342,2.8341,0,0,2.7878,2.7905,2.7936,2.8,2.8026,2.8078,2.8035,2.8091,2.813,2.8106,2.8178,2.8195,2.8233,2.8316,2.8353,2.8332,2.8482,2.8436,2.8443,2.8447,2.8493,2.8508,2.8522,2.8346,2.8345,2.8345,0,0,2.7976,2.8002,2.8065,2.8092,2.8131,2.814,2.8156,2.8191,2.8202,2.8274,2.8258,2.8303,2.8386,2.8414,2.8439,2.8549,2.8533,2.8564,2.8619,2.8667,2.8679,2.869,2.8729,2.8743,2.8572,2.8572,2.8573,0,2.802,2.8098,2.8099,2.8158,2.8186,2.8168,2.8232,2.8258,2.831,2.833,2.8306,2.841,2.8434,2.8523,2.855,2.8571,2.8589,2.8559,2.8677,2.8688,2.8699,2.8736,2.875,2.8576,2.8576,2.8575,2.8575,0,2.815,2.8204,2.8251,2.8302,2.8336,2.8397,2.8407,2.8442,2.8438,2.8449,2.8524,2.8552,2.8603,2.8625,2.8621,2.8714,2.8699,2.8677,2.8633,2.8717,2.8752,2.8766,2.8581,2.858,2.8579,2.8578,0,0,2.8274,2.8326,2.8343,2.8366,2.8409,2.8451,2.8511,2.8562,2.8591,2.8628,2.8678,2.875,2.8729,2.8757,2.8757,2.8799,2.8884,2.8771,2.8772,2.879,2.8987,2.9003,2.902,2.8874,2.8877,2.8879,2.8984,0,2.8375,2.8481,2.8484,2.8581,2.8631,2.8615,2.8668,2.87,2.8713,2.8757,2.8771,2.8821,2.8791,2.8808,2.8849,2.8865,2.8923,2.8857,2.8921,2.8923,2.8911,2.9038,2.9055,2.9153,2.8998,2.9,2.9002,0,2.8506,2.8548,2.865,2.8686,2.8707,2.8754,2.8801,2.8844,2.888,2.8886,2.8919,2.8912,2.8974,2.8929,2.9014,2.8969,2.8996,2.9008,2.9012,2.9017,2.8966,2.9046,2.9184,2.9198,2.9023,2.9021,2.902,0,2.8586,2.8668,2.8739,2.876,2.8804,2.8837,2.8857,2.889,2.8921,2.8962,2.8981,2.9029,2.9055,2.9092,2.9099,2.9066,2.9184,2.914,2.919,2.919,2.9215,2.9213,2.9358,2.9234,2.9233,2.9233,2.9233,0,2.8698,2.8761,2.8776,2.882,2.889,2.8893,2.8963,2.898,2.901,2.9057,2.9046,2.909,2.9097,2.9143,2.9148,2.9218,2.923,2.9236,2.9237,2.9237,2.9236,2.9253,2.9246,2.9237,2.9236,2.9235,2.9235,0,2.8798,2.8811,2.8888,2.8923,2.8934,2.8984,2.9014,2.9056,2.9068,2.9128,2.9142,2.9161,2.9215,2.9226,2.9289,2.9293,2.9375,2.9369,2.9363,2.9362,2.9411,2.9406,2.9572,2.9594,2.9456,2.9457,2.9458,0,2.8868,2.8916,2.8957,2.8988,2.901,2.906,2.9091,2.9097,2.9129,2.9174,2.9211,2.9264,2.9306,2.9392,2.9411,2.946,2.9455,2.9509,2.9462,2.946,2.9455,2.9451,2.9456,2.9518,2.952,2.9521,2.9522,0,2.8991,2.8995,2.9041,2.9089,2.9127,2.9165,2.9201,2.9227,2.9237,2.9275,2.9329,2.9362,2.9427,2.9479,2.9528,2.9548,2.9537,2.9537,2.9551,2.9551,2.9545,2.9548,2.9387,2.9533,2.9532,2.9531,2.953,2.953,2.9078,2.912,2.9156,2.9207,2.9235,2.9269,2.931,2.9328,2.9374,2.9427,2.9428,2.9488,2.9523,2.9587,2.9611,2.9657,2.964,2.9661,2.9666,2.9671,2.9675,2.9539,2.9666,2.9666,2.9666,2.9666,2.9665,0,2.92,2.9222,2.9269,2.932,2.9361,2.9348,2.9387,2.9422,2.9474,2.9508,2.955,2.9614,2.9664,2.9688,2.9738,2.9771,2.9767,2.9784,2.9781,2.9786,2.9688,2.967,2.9786,2.9786,2.9786,2.9786,2.9786,2.9786,2.9268,2.9338,2.9347,2.9431,2.9453,2.9512,2.9535,2.9567,2.9594,2.9665,2.9707,2.9723,2.9753,2.9805,2.9851,2.9857,2.9875,2.9895,2.9898,2.9805,2.9793,2.9781,2.9765,2.9899,2.9899,2.9992,2.9993,2.9994]},{"header":{"parameterUnit":"m.s-1","parameterCategory":1,"la1":30.2991,"la2":30.254,"lo1":-89.0895,"lo2":-89.0444,"dy":0.0017,"dx":0.0017,"nx":28,"ny":28,"refTime":"2024-08-12T21:00:00:Z","depth":0,"parameterNumber":3,"parameterNumberName":"V-component_of_WINDS"},"data":[0,0,0,0,0,0,0,0,0,0,0,0,0,0,0,0,0,0,0,0,0,0,0,0,0,0,0,0,0,0,0,0,0,0,0,0,0,0,0,0,0,0,0,0,0,0,0,0,0,0,0,0,0,0,0,0,0,0,-1.4271,-1.4271,0,-1.4322,-1.4322,-1.4323,-1.4304,-1.4302,-1.4301,-1.43,-1.4353,-1.4355,-1.4358,0,0,0,0,0,0,0,0,0,0,0,0,0,-1.4158,-1.416,-1.4271,-1.4271,-1.4272,-1.4322,-1.4322,-1.4323,-1.4304,-1.4302,-1.4301,-1.43,-1.4352,-1.4355,-1.4358,0,0,0,0,0,0,0,0,0,0,0,0,0,-1.4208,-1.4161,-1.4271,-1.4268,-1.4269,-1.4322,-1.4322,-1.4323,-1.4304,-1.4302,-1.43,-1.4299,-1.4351,-1.4355,-1.4358,-1.4417,0,0,-1.437,-1.4371,0,0,0,0,0,0,0,0,-1.4205,-1.4212,-1.4268,-1.4269,-1.4269,-1.4304,-1.4302,-1.4355,-1.4304,-1.4291,-1.43,-1.4298,-1.4338,-1.4343,-1.4356,-1.4419,-1.4421,-1.437,-1.4372,-1.4374,-1.4375,0,0,0,0,0,0,0,-1.4202,-1.421,-1.4291,-1.4269,-1.427,-1.4265,-1.427,-1.4312,-1.4324,-1.4292,-1.429,-1.4297,-1.4338,-1.4353,-1.4357,-1.4422,-1.437,-1.4373,-1.4376,-1.4377,-1.4536,-1.4538,0,0,0,0,0,0,-1.4198,-1.4207,-1.4289,-1.4293,-1.4232,-1.4269,-1.4274,-1.4295,-1.4323,-1.4326,-1.4298,-1.4296,-1.4347,-1.4353,-1.4359,-1.443,-1.4374,-1.4377,-1.438,-1.4534,-1.4536,-1.4539,0,0,0,0,0,0,-1.4195,-1.4205,-1.4287,-1.4249,-1.4259,-1.4272,-1.4296,-1.4297,-1.4311,-1.4328,-1.433,-1.4311,-1.4346,-1.4354,-1.4403,-1.4431,-1.4379,-1.4382,-1.4532,-1.4535,-1.4538,-1.4571,0,0,0,0,0,0,-1.4192,-1.4205,-1.4227,-1.425,-1.4262,-1.433,-1.4297,-1.4299,-1.4318,-1.4315,-1.434,-1.4343,-1.4345,-1.4397,-1.4406,-1.4435,-1.4385,-1.4529,-1.4533,-1.4537,-1.4567,-1.4575,-1.4581,0,0,0,0,0,-1.4188,-1.4234,-1.4228,-1.4238,-1.4289,-1.4331,-1.4338,-1.4339,-1.432,-1.4343,-1.4353,-1.4342,-1.4427,-1.4402,-1.4412,-1.4443,-1.4527,-1.4532,-1.4536,-1.4564,-1.4573,-1.4581,0,0,0,0,0,0,-1.4213,-1.4237,-1.423,-1.4285,-1.4306,-1.4328,-1.4356,-1.4349,-1.4376,-1.4372,-1.4373,-1.4379,-1.443,-1.4441,-1.4414,-1.4501,-1.4474,-1.4481,-1.4492,-1.4501,-1.4507,-1.4503,-1.4388,0,0,0,0,0,-1.4225,-1.4257,-1.4276,-1.4322,-1.4333,-1.4343,-1.4361,-1.4361,-1.4383,-1.4392,-1.4406,-1.4429,-1.446,-1.4481,-1.4511,-1.4569,-1.4575,-1.4595,-1.4602,-1.4607,-1.4613,-1.4646,-1.4655,-1.4553,-1.4553,-1.4553,0,0,-1.425,-1.4267,-1.4287,-1.4328,-1.4344,-1.4378,-1.4351,-1.4387,-1.4412,-1.4398,-1.4445,-1.4456,-1.4481,-1.4535,-1.4559,-1.4546,-1.4643,-1.4613,-1.4617,-1.462,-1.4651,-1.4661,-1.4669,-1.4556,-1.4556,-1.4555,0,0,-1.4313,-1.4328,-1.4369,-1.4386,-1.4411,-1.4418,-1.4427,-1.4451,-1.4458,-1.4505,-1.4495,-1.4525,-1.4579,-1.4597,-1.4614,-1.4684,-1.4675,-1.4694,-1.473,-1.4761,-1.4769,-1.4776,-1.4802,-1.4811,-1.47,-1.47,-1.47,0,-1.434,-1.439,-1.4391,-1.4428,-1.4447,-1.4435,-1.4476,-1.4493,-1.4527,-1.4541,-1.4525,-1.4594,-1.461,-1.4668,-1.4685,-1.4699,-1.471,-1.4691,-1.4768,-1.4775,-1.4782,-1.4806,-1.4816,-1.4702,-1.4702,-1.4702,-1.4701,0,-1.4423,-1.4458,-1.4487,-1.4521,-1.4542,-1.4582,-1.4589,-1.4611,-1.4609,-1.4617,-1.4665,-1.4684,-1.4718,-1.4732,-1.473,-1.479,-1.4781,-1.4767,-1.474,-1.4793,-1.4816,-1.4826,-1.4705,-1.4704,-1.4704,-1.4703,0,0,-1.4502,-1.4536,-1.4547,-1.4562,-1.4589,-1.4616,-1.4655,-1.4689,-1.4708,-1.4732,-1.4765,-1.4812,-1.4799,-1.4817,-1.4818,-1.4845,-1.4901,-1.4828,-1.4828,-1.4841,-1.4969,-1.498,-1.499,-1.4895,-1.4896,-1.4898,-1.4967,0,-1.4567,-1.4635,-1.4637,-1.47,-1.4732,-1.4722,-1.4756,-1.4777,-1.4786,-1.4815,-1.4825,-1.4858,-1.4838,-1.485,-1.4877,-1.4888,-1.4926,-1.4883,-1.4926,-1.4927,-1.492,-1.5002,-1.5014,-1.5078,-1.4976,-1.4977,-1.4978,0,-1.4651,-1.4678,-1.4744,-1.4768,-1.4781,-1.4812,-1.4843,-1.4871,-1.4894,-1.4899,-1.492,-1.4917,-1.4957,-1.4929,-1.4985,-1.4956,-1.4973,-1.4982,-1.4984,-1.4988,-1.4956,-1.5009,-1.5098,-1.5108,-1.4992,-1.4991,-1.499,0,-1.4703,-1.4756,-1.4802,-1.4815,-1.4844,-1.4866,-1.4879,-1.4901,-1.4921,-1.4948,-1.4961,-1.4993,-1.501,-1.5035,-1.504,-1.5019,-1.5097,-1.5068,-1.5102,-1.5102,-1.5119,-1.5118,-1.5213,-1.513,-1.513,-1.513,-1.513,0,-1.4775,-1.4816,-1.4826,-1.4854,-1.49,-1.4902,-1.4947,-1.4959,-1.4979,-1.501,-1.5003,-1.5032,-1.5037,-1.5068,-1.5072,-1.5119,-1.5127,-1.5132,-1.5132,-1.5133,-1.5132,-1.5144,-1.514,-1.5132,-1.5132,-1.5131,-1.5131,0,-1.4841,-1.4849,-1.4898,-1.4921,-1.4928,-1.4961,-1.4981,-1.5009,-1.5017,-1.5056,-1.5066,-1.5079,-1.5114,-1.5122,-1.5165,-1.5168,-1.5223,-1.5219,-1.5215,-1.5215,-1.5248,-1.5245,-1.5354,-1.5369,-1.5276,-1.5277,-1.5278,0,-1.4886,-1.4917,-1.4944,-1.4964,-1.4978,-1.5011,-1.5031,-1.5035,-1.5057,-1.5087,-1.5111,-1.5146,-1.5174,-1.5232,-1.5246,-1.5278,-1.5275,-1.5312,-1.528,-1.528,-1.5277,-1.5275,-1.5278,-1.5318,-1.5318,-1.5319,-1.532,0,-1.4967,-1.4969,-1.4999,-1.503,-1.5055,-1.508,-1.5103,-1.512,-1.5127,-1.5152,-1.5189,-1.5211,-1.5254,-1.529,-1.5323,-1.5336,-1.533,-1.533,-1.5339,-1.534,-1.5336,-1.5339,-1.5231,-1.5327,-1.5326,-1.5326,-1.5326,-1.5325,-1.5024,-1.5051,-1.5074,-1.5108,-1.5126,-1.5148,-1.5176,-1.5187,-1.5218,-1.5254,-1.5254,-1.5294,-1.5318,-1.5362,-1.5378,-1.5409,-1.5398,-1.5412,-1.5416,-1.5419,-1.5422,-1.5331,-1.5415,-1.5415,-1.5415,-1.5415,-1.5415,0,-1.5104,-1.5118,-1.5149,-1.5183,-1.5209,-1.52,-1.5226,-1.5249,-1.5285,-1.5307,-1.5335,-1.5378,-1.5412,-1.5429,-1.5463,-1.5485,-1.5483,-1.5494,-1.5493,-1.5496,-1.543,-1.5418,-1.5495,-1.5495,-1.5495,-1.5495,-1.5495,-1.5495,-1.5149,-1.5195,-1.5201,-1.5256,-1.527,-1.5309,-1.5325,-1.5346,-1.5364,-1.5412,-1.544,-1.5451,-1.5471,-1.5507,-1.5538,-1.5542,-1.5556,-1.5568,-1.5571,-1.5509,-1.5501,-1.5493,-1.5482,-1.5571,-1.5571,-1.5634,-1.5635,-1.5635]}]]